Home   Weather   Castrop-Rauxel   Past weeks

Flag for Germany Past Weather in Castrop-Rauxel, North Rhine-Westphalia, Germany — Yesterday and Last 2 Weeks

Now
34 °F

Passing clouds.


Feels Like: 26 °F
Forecast: 41 / 48 °F
Wind: 10 mph from Southwest

Location: Dortmund / Wickede

Current Time: Feb 25, 2017 at 8:09:06 am

Latest Report: Feb 25, 2017 at 7:20 am


Visibility: 5 mi

Pressure: 30.12 "Hg

Humidity: 81%

Dew Point: 28 °F

Location of Castrop-RauxelLocation

Past Weather in Castrop-Rauxel — Graph

°F

Castrop-Rauxel Temperature Yesterday

Maximum temperature yesterday: 45 °F (at 3:20 pm)
Minimum temperature yesterday: 36 °F (at 6:50 am)
Average temperature yesterday: 39 °F

High & Low Weather Summary for the Past Weeks

 TemperatureHumidityPressure
High61 °F (Feb 15, 2:50 pm)94% (Feb 20, 9:50 pm)30.51 "Hg (Feb 20, 9:50 pm)
Low28 °F (Feb 10, 6:20 am)29% (Feb 15, 2:50 pm)29.18 "Hg (Feb 23, 4:56 pm)
Average41 °F74%30.11 "Hg
* Reported Feb 10 6:20 am — Feb 25 6:50 am, Castrop-Rauxel, Weather by CustomWeather, © 2017

Note: Actual official high and low records may vary slightly from our data, if they occured in-between our weather recording intervals... More about our weather records

Advertising

Castrop-Rauxel Weather History for the Previous 24 Hours

Scroll right to see more
 ConditionsComfort  
Time TempWeatherWind HumidityBarometerVisibility
6:50 am
Sat, Feb 25
34 °FPassing clouds.10 mph87%30.12 "HgN/A
6:20 am32 °FPassing clouds.10 mph87%30.09 "HgN/A
5:50 am32 °FPassing clouds.12 mph87%30.09 "HgN/A
5:20 am32 °FPassing clouds.10 mph87%30.09 "HgN/A
9:50 pm
Fri, Feb 24
36 °FPassing clouds.5 mph75%30.07 "HgN/A
9:20 pm36 °FClear.3 mph70%30.07 "Hg10 mi
8:50 pm36 °FClear.3 mph70%30.07 "Hg10 mi
8:20 pm37 °FPassing clouds.5 mph65%30.07 "HgN/A
7:50 pm37 °FClear.3 mph70%30.04 "Hg10 mi
7:20 pm39 °FPassing clouds.3 mph65%30.04 "HgN/A
6:50 pm37 °FPassing clouds.3 mph70%30.01 "HgN/A
6:20 pm39 °FClear.3 mph61%29.98 "Hg10 mi
5:50 pm41 °FPassing clouds.8 mph57%29.98 "HgN/A
5:20 pm41 °FPassing clouds.6 mph57%29.95 "HgN/A
4:50 pm43 °FPassing clouds.7 mph49%29.95 "HgN/A
4:20 pm41 °FPassing clouds.8 mph57%29.95 "HgN/A
3:50 pm43 °FPassing clouds.9 mph49%29.92 "HgN/A
3:20 pm45 °FPassing clouds.10 mph46%29.92 "HgN/A
2:50 pm43 °FPassing clouds.9 mph49%29.92 "HgN/A
2:20 pm41 °FPassing clouds.8 mph57%29.92 "HgN/A
1:50 pm41 °FPassing clouds.10 mph53%29.89 "HgN/A
1:20 pm43 °FScattered clouds.7 mph53%29.89 "HgN/A
12:50 pm43 °FPassing clouds.7 mph57%29.89 "HgN/A
12:20 pm41 °FScattered clouds.10 mph61%29.89 "HgN/A
11:50 am41 °FScattered clouds.9 mph66%29.89 "HgN/A
11:20 am41 °FScattered clouds.10 mph66%29.86 "HgN/A
10:50 am39 °FPassing clouds.10 mph70%29.86 "HgN/A
10:20 am39 °FScattered clouds.10 mph70%29.83 "HgN/A
9:50 am37 °FPassing clouds.10 mph75%29.83 "HgN/A
9:20 am37 °FPassing clouds.12 mph75%29.80 "HgN/A
8:50 am37 °FScattered clouds.13 mph81%29.77 "HgN/A
8:20 am37 °FPartly sunny.14 mph81%29.74 "HgN/A
Weather by CustomWeather, © 2017

See weather overviewHow to use our weather pages